Total_Precipitation_Accumulation
1.43 1.45 1.36 1.33 1.21 1.36 1.63 1.83 1.79 1.94 2.07 1.89 1.63 1.51 1.34 1.18 1.09 1.06 1.24 1.43 1.32 1.35 1.56 1.66 1.64 1.54 1.50 1.33 1.17 1.08 1.01 0.93 0.77 0.56 0.44 0.42 0.37 0.29 0.25 0.25 0.24 0.24 0.20
1.64 1.66 1.55 1.46 1.23 1.30 1.53 1.78 1.82 1.98 1.96 1.97 1.60 1.49 1.36 1.34 1.21 1.16 1.27 1.44 1.38 1.24 1.29 1.51 1.68 1.74 1.72 1.61 1.41 1.17 1.06 1.00 0.86 0.65 0.49 0.44 0.40 0.35 0.35 0.36 0.33 0.25 0.17
1.90 1.91 1.73 1.49 1.37 1.55 1.65 1.65 1.70 2.07 1.91 1.77 1.55 1.61 1.57 1.50 1.32 1.24 1.29 1.37 1.23 1.16 1.12 1.19 1.42 1.62 1.84 1.86 1.70 1.49 1.25 1.06 0.90 0.69 0.53 0.42 0.36 0.34 0.34 0.36 0.39 0.32 0.21
1.90 2.03 1.72 1.42 1.58 1.77 1.72 1.65 1.69 1.91 1.90 1.96 1.84 1.71 1.61 1.47 1.17 1.12 1.12 1.09 1.14 0.95 1.03 1.20 1.31 1.40 1.74 1.98 2.01 1.96 1.64 1.29 0.99 0.74 0.59 0.47 0.40 0.34 0.30 0.27 0.30 0.33 0.25
1.32 1.37 1.06 0.99 1.26 1.35 1.23 1.20 1.45 1.60 1.60 1.74 1.74 1.50 1.31 1.15 0.97 0.92 0.93 0.79 0.88 0.88 0.89 1.09 1.26 1.33 1.64 2.01 2.38 2.48 2.18 1.77 1.36 1.00 0.83 0.69 0.55 0.42 0.33 0.28 0.25 0.28 0.25
0.87 0.90 0.73 0.73 0.99 1.05 0.97 1.09 1.20 1.24 1.18 1.25 1.16 0.92 0.89 0.77 0.78 0.74 0.65 0.65 0.66 0.67 0.78 0.94 1.15 1.06 1.41 1.83 2.22 2.42 2.40 2.18 1.76 1.45 1.25 1.06 0.88 0.65 0.42 0.31 0.29 0.27 0.23
0.75 0.83 0.72 0.80 0.95 0.95 0.92 0.98 1.04 0.97 0.81 0.98 1.04 0.76 0.60 0.56 0.58 0.54 0.51 0.50 0.46 0.51 0.70 0.90 1.07 1.12 1.04 1.14 1.50 1.83 2.26 2.48 2.16 1.77 1.57 1.41 1.24 0.95 0.66 0.50 0.38 0.31 0.24
0.63 0.72 0.67 0.58 0.63 0.66 0.61 0.65 0.82 0.84 0.74 0.87 0.96 0.84 0.60 0.55 0.50 0.37 0.42 0.42 0.42 0.52 0.64 0.74 0.95 1.12 1.12 1.26 1.04 1.16 1.71 2.17 2.41 2.27 1.96 1.61 1.36 1.10 0.88 0.74 0.56 0.40 0.33
0.39 0.47 0.50 0.50 0.55 0.62 0.61 0.61 0.65 0.69 0.63 0.64 0.79 0.90 0.70 0.49 0.42 0.38 0.39 0.39 0.45 0.58 0.67 0.80 0.86 0.94 1.04 1.24 1.24 1.14 1.36 1.50 2.10 2.53 2.34 1.85 1.35 1.04 0.93 0.93 0.81 0.57 0.45
0.27 0.30 0.34 0.34 0.41 0.52 0.59 0.55 0.55 0.58 0.57 0.50 0.56 0.65 0.66 0.61 0.54 0.42 0.40 0.44 0.48 0.59 0.74 0.83 0.93 0.95 0.98 1.08 1.23 1.22 1.10 1.12 1.47 1.97 2.21 2.08 1.67 1.25 1.03 1.09 1.28 1.16 0.80
0.26 0.27 0.28 0.29 0.32 0.36 0.39 0.43 0.49 0.52 0.54 0.50 0.49 0.56 0.63 0.66 0.65 0.57 0.47 0.46 0.44 0.41 0.56 0.75 0.90 0.95 0.91 1.01 1.22 1.26 1.22 1.11 1.01 1.11 1.49 1.78 1.76 1.51 1.27 1.33 1.72 1.94 1.71
0.26 0.29 0.30 0.31 0.33 0.33 0.34 0.37 0.40 0.44 0.50 0.54 0.53 0.56 0.65 0.70 0.66 0.65 0.57 0.50 0.47 0.42 0.47 0.65 0.90 1.03 1.00 1.01 0.93 0.95 0.97 0.88 0.82 0.83 0.94 1.14 1.36 1.46 1.46 1.57 1.88 2.19 2.33
0.23 0.27 0.32 0.34 0.37 0.37 0.37 0.38 0.39 0.41 0.48 0.56 0.56 0.55 0.57 0.63 0.69 0.71 0.65 0.57 0.59 0.59 0.69 0.73 0.81 0.94 0.91 0.96 0.91 0.77 0.61 0.56 0.54 0.57 0.72 0.89 1.10 1.32 1.45 1.50 1.69 1.93 2.12
0.24 0.28 0.29 0.30 0.34 0.36 0.38 0.40 0.37 0.37 0.47 0.56 0.61 0.69 0.66 0.59 0.74 0.82 0.78 0.77 0.74 0.78 0.94 0.88 0.80 0.80 0.83 0.87 0.77 0.65 0.49 0.43 0.40 0.39 0.44 0.47 0.55 0.69 0.83 0.97 1.13 1.31 1.48
0.26 0.28 0.29 0.31 0.32 0.35 0.38 0.40 0.41 0.45 0.52 0.56 0.64 0.78 0.83 0.79 0.78 0.84 0.89 0.94 0.98 0.95 0.93 0.90 0.80 0.74 0.72 0.70 0.63 0.54 0.42 0.38 0.37 0.35 0.34 0.34 0.36 0.42 0.46 0.51 0.57 0.66 0.73
0.22 0.27 0.32 0.34 0.34 0.36 0.43 0.50 0.49 0.50 0.59 0.68 0.80 0.89 0.94 0.96 0.95 0.87 0.91 0.96 0.98 1.04 1.01 0.85 0.78 0.79 0.71 0.55 0.52 0.47 0.40 0.42 0.39 0.36 0.33 0.31 0.30 0.35 0.39 0.40 0.38 0.41 0.46
0.21 0.25 0.31 0.35 0.36 0.43 0.61 0.78 0.77 0.68 0.74 0.84 0.93 1.03 1.08 1.13 1.13 1.02 0.97 0.94 0.94 1.03 0.98 0.83 0.77 0.79 0.68 0.52 0.46 0.43 0.41 0.40 0.36 0.37 0.33 0.29 0.28 0.29 0.32 0.35 0.34 0.33 0.34
0.19 0.19 0.22 0.26 0.29 0.35 0.51 0.83 1.00 1.02 0.99 0.91 0.96 1.12 1.21 1.18 1.10 1.03 1.03 0.98 0.97 1.06 1.00 0.91 0.89 0.83 0.75 0.66 0.56 0.50 0.43 0.39 0.38 0.39 0.35 0.30 0.28 0.27 0.27 0.27 0.27 0.27 0.28
0.20 0.20 0.22 0.26 0.31 0.33 0.39 0.59 0.82 0.94 0.97 0.92 0.98 1.03 1.06 1.13 1.11 1.04 0.98 0.95 0.94 1.04 1.04 0.95 1.02 1.00 0.90 0.78 0.65 0.54 0.47 0.44 0.39 0.37 0.38 0.35 0.32 0.27 0.25 0.25 0.25 0.25 0.24
0.20 0.23 0.26 0.31 0.32 0.29 0.30 0.43 0.58 0.70 0.76 0.80 0.85 0.90 0.93 0.96 1.03 1.08 1.02 0.97 0.99 1.01 1.02 1.01 1.05 1.18 1.09 0.92 0.74 0.61 0.52 0.48 0.44 0.34 0.35 0.38 0.37 0.32 0.28 0.25 0.24 0.23 0.25
0.16 0.22 0.28 0.30 0.28 0.25 0.30 0.42 0.47 0.44 0.49 0.55 0.58 0.60 0.71 0.86 0.96 1.02 0.97 0.94 1.00 1.00 1.00 1.05 1.08 1.21 1.24 1.07 0.83 0.64 0.56 0.54 0.51 0.45 0.38 0.32 0.30 0.27 0.25 0.26 0.26 0.24 0.22
0.21 0.24 0.25 0.28 0.27 0.22 0.27 0.32 0.30 0.28 0.32 0.37 0.40 0.39 0.39 0.51 0.69 0.82 0.84 0.84 0.90 0.95 0.99 1.01 1.08 1.17 1.23 1.13 0.95 0.80 0.65 0.55 0.53 0.52 0.52 0.47 0.37 0.31 0.26 0.22 0.24 0.25 0.25
0.28 0.30 0.30 0.31 0.32 0.32 0.25 0.21 0.18 0.19 0.23 0.30 0.34 0.35 0.27 0.26 0.40 0.56 0.66 0.70 0.72 0.72 0.80 0.96 1.07 1.09 1.19 1.23 1.15 0.96 0.84 0.72 0.58 0.55 0.59 0.60 0.52 0.41 0.32 0.28 0.32 0.27 0.26
0.34 0.35 0.35 0.38 0.44 0.41 0.29 0.20 0.16 0.16 0.20 0.28 0.32 0.33 0.32 0.33 0.36 0.42 0.53 0.62 0.66 0.64 0.61 0.69 0.86 1.05 1.20 1.35 1.32 1.21 1.11 0.98 0.80 0.70 0.66 0.64 0.60 0.52 0.43 0.35 0.35 0.31 0.28
0.42 0.40 0.42 0.45 0.51 0.55 0.42 0.26 0.20 0.19 0.25 0.28 0.33 0.34 0.35 0.33 0.31 0.28 0.37 0.43 0.50 0.59 0.58 0.60 0.71 0.94 1.12 1.27 1.41 1.35 1.22 1.03 0.85 0.73 0.65 0.57 0.56 0.57 0.53 0.43 0.37 0.36 0.31
0.54 0.49 0.47 0.50 0.55 0.65 0.56 0.33 0.26 0.27 0.35 0.38 0.45 0.45 0.36 0.30 0.24 0.20 0.28 0.38 0.41 0.43 0.53 0.58 0.65 0.77 0.93 1.05 1.18 1.18 1.04 0.96 0.80 0.69 0.58 0.51 0.47 0.51 0.56 0.50 0.42 0.36 0.33